Time,TemperatureF,DewpointF,PressureIn,WindDirection,WindDirectionDegrees,WindSpeedMPH,WindSpeedGustMPH,Humidity,HourlyPrecipIn,Conditions,Clouds,dailyrainin,SoftwareType,DateUTC
2013-02-04 00:00:00,43.8,43.3,30.21,SE,135,0.0,2.0,98,0.00,,SKC,0.00,VWS V14.01,2013-02-04 08:00:00,
2013-02-04 00:15:00,43.8,43.3,30.20,SE,135,0.0,2.0,98,0.00,,SKC,0.00,VWS V14.01,2013-02-04 08:15:00,
2013-02-04 00:30:00,43.7,43.2,30.20,SE,135,0.0,2.0,98,0.00,,SKC,0.00,VWS V14.01,2013-02-04 08:30:00,
2013-02-04 00:45:00,43.6,43.1,30.19,SE,135,0.0,2.0,98,0.00,,SKC,0.00,VWS V14.01,2013-02-04 08:45:00,
2013-02-04 01:00:00,43.6,43.1,30.20,SE,135,1.0,4.0,98,0.00,,SKC,0.00,VWS V14.01,2013-02-04 09:00:00,
2013-02-04 01:15:00,43.6,43.1,30.21,SE,135,1.0,4.0,98,0.00,,SKC,0.00,VWS V14.01,2013-02-04 09:15:00,
2013-02-04 01:30:00,43.6,43.1,30.21,SE,135,0.0,4.0,98,0.00,,SKC,0.00,VWS V14.01,2013-02-04 09:30:00,
2013-02-04 01:45:00,43.5,43.0,30.20,SE,135,0.0,4.0,98,0.00,,SKC,0.00,VWS V14.01,2013-02-04 09:45:00,
2013-02-04 02:00:00,43.4,42.9,30.20,SE,135,0.0,4.0,98,0.00,,SKC,0.00,VWS V14.01,2013-02-04 10:00:00,
2013-02-04 02:15:00,43.4,42.9,30.20,SE,135,0.0,2.0,98,0.00,,SKC,0.00,VWS V14.01,2013-02-04 10:15:00,
2013-02-04 02:30:00,43.4,42.9,30.20,SE,135,0.0,4.0,98,0.00,,SKC,0.00,VWS V14.01,2013-02-04 10:30:00,
2013-02-04 02:45:00,43.3,42.8,30.20,SE,135,0.0,2.0,98,0.00,,SKC,0.00,VWS V14.01,2013-02-04 10:45:00,
2013-02-04 03:00:00,43.3,43.0,30.19,SE,135,0.0,2.0,99,0.00,,SKC,0.00,VWS V14.01,2013-02-04 11:00:00,
2013-02-04 03:15:00,43.2,42.9,30.19,SE,135,1.0,5.0,99,0.00,,SKC,0.00,VWS V14.01,2013-02-04 11:15:00,
2013-02-04 03:30:00,43.2,42.9,30.20,SE,135,1.0,5.0,99,0.00,,SKC,0.00,VWS V14.01,2013-02-04 11:30:00,
2013-02-04 03:45:00,43.1,42.8,30.20,SE,135,0.0,1.0,99,0.00,,SKC,0.00,VWS V14.01,2013-02-04 11:45:00,
2013-02-04 04:00:00,43.2,42.9,30.20,SE,135,0.0,1.0,99,0.00,,SKC,0.00,VWS V14.01,2013-02-04 12:00:00,
2013-02-04 04:15:00,43.1,42.8,30.19,SE,135,1.0,2.0,99,0.00,,SKC,0.00,VWS V14.01,2013-02-04 12:15:00,
2013-02-04 04:30:00,43.1,42.8,30.17,SE,135,1.0,6.0,99,0.00,,SKC,0.00,VWS V14.01,2013-02-04 12:30:00,
2013-02-04 04:45:00,43.1,42.8,30.18,SE,135,1.0,6.0,99,0.00,,SKC,0.00,VWS V14.01,2013-02-04 12:45:00,
2013-02-04 05:00:00,43.1,42.6,30.18,South,180,0.0,5.0,98,0.00,,SKC,0.00,VWS V14.01,2013-02-04 13:00:00,
2013-02-04 05:15:00,43.1,42.6,30.18,South,180,0.0,1.0,98,0.00,,SKC,0.00,VWS V14.01,2013-02-04 13:15:00,
2013-02-04 05:45:00,43.0,42.5,30.18,South,180,0.0,1.0,98,0.00,,SKC,0.00,VWS V14.01,2013-02-04 13:45:00,
2013-02-04 06:00:00,42.9,42.4,30.18,South,180,0.0,1.0,98,0.00,,SKC,0.00,VWS V14.01,2013-02-04 14:00:00,
2013-02-04 06:15:00,42.9,42.4,30.17,South,180,0.0,2.0,98,0.00,,SKC,0.00,VWS V14.01,2013-02-04 14:15:00,
2013-02-04 06:30:00,42.8,42.3,30.17,SSE,158,0.0,2.0,98,0.00,,SKC,0.00,VWS V14.01,2013-02-04 14:30:00,
2013-02-04 06:45:00,42.8,42.3,30.16,SSE,158,0.0,4.0,98,0.00,,SKC,0.00,VWS V14.01,2013-02-04 14:45:00,
2013-02-04 07:00:00,42.8,42.3,30.16,SSE,158,0.0,2.0,98,0.00,,SKC,0.00,VWS V14.01,2013-02-04 15:00:00,
2013-02-04 07:15:00,42.8,42.3,30.16,SSE,158,0.0,1.0,98,0.00,,SKC,0.00,VWS V14.01,2013-02-04 15:15:00,
2013-02-04 07:30:00,42.7,42.2,30.16,SSE,158,0.0,2.0,98,0.00,,SKC,0.00,VWS V14.01,2013-02-04 15:30:00,
2013-02-04 07:45:00,42.7,42.2,30.17,SSE,158,0.0,5.0,98,0.00,,SKC,0.00,VWS V14.01,2013-02-04 15:45:00,
2013-02-04 08:00:00,42.8,42.3,30.16,SSE,158,0.0,2.0,98,0.00,,SKC,0.00,VWS V14.01,2013-02-04 16:00:00,
2013-02-04 08:15:00,42.8,42.3,30.17,SSE,158,0.0,5.0,98,0.00,,SKC,0.00,VWS V14.01,2013-02-04 16:15:00,
2013-02-04 08:30:00,43.0,42.2,30.17,SE,135,2.0,6.0,97,0.00,,SKC,0.00,VWS V14.01,2013-02-04 16:30:00,
2013-02-04 08:45:00,43.1,42.3,30.16,SE,135,1.0,5.0,97,0.00,,SKC,0.00,VWS V14.01,2013-02-04 16:45:00,
2013-02-04 09:00:00,43.2,42.4,30.16,SE,135,0.0,2.0,97,0.00,,SKC,0.00,VWS V14.01,2013-02-04 17:00:00,
2013-02-04 09:15:00,43.3,42.5,30.16,SE,135,0.0,1.0,97,0.00,,SKC,0.00,VWS V14.01,2013-02-04 17:15:00,
2013-02-04 09:30:00,43.3,42.5,30.16,SE,135,0.0,1.0,97,0.00,,SKC,0.00,VWS V14.01,2013-02-04 17:30:00,
2013-02-04 09:45:00,43.4,42.6,30.16,SE,135,0.0,1.0,97,0.00,,SKC,0.00,VWS V14.01,2013-02-04 17:45:00,
2013-02-04 10:00:00,43.7,42.9,30.16,SE,135,0.0,2.0,97,0.00,,SKC,0.00,VWS V14.01,2013-02-04 18:00:00,
2013-02-04 10:15:00,44.0,43.2,30.17,SE,135,1.0,6.0,97,0.00,,SKC,0.00,VWS V14.01,2013-02-04 18:15:00,
2013-02-04 10:30:00,44.3,43.2,30.17,SE,135,0.0,4.0,96,0.00,,SKC,0.00,VWS V14.01,2013-02-04 18:30:00,
2013-02-04 10:45:00,44.6,43.3,30.17,ESE,112,1.0,5.0,95,0.00,,SKC,0.00,VWS V14.01,2013-02-04 18:45:00,
2013-02-04 11:00:00,44.9,43.3,30.17,SE,135,1.0,5.0,94,0.00,,SKC,0.00,VWS V14.01,2013-02-04 19:00:00,
2013-02-04 11:15:00,45.2,43.3,30.16,SE,135,1.0,6.0,93,0.00,,SKC,0.00,VWS V14.01,2013-02-04 19:15:00,
2013-02-04 11:30:00,45.7,43.5,30.15,SE,135,2.0,8.0,92,0.00,,SKC,0.00,VWS V14.01,2013-02-04 19:30:00,
2013-02-04 11:45:00,46.2,44.0,30.15,SE,135,1.0,5.0,92,0.00,,SKC,0.00,VWS V14.01,2013-02-04 19:45:00,
2013-02-04 12:00:00,46.8,43.7,30.15,ESE,112,1.0,5.0,89,0.00,,SKC,0.00,VWS V14.01,2013-02-04 20:00:00,
2013-02-04 12:15:00,47.0,43.6,30.14,SE,135,1.0,5.0,88,0.00,,SKC,0.00,VWS V14.01,2013-02-04 20:15:00,
2013-02-04 12:30:00,47.3,43.3,30.13,SSE,158,1.0,5.0,86,0.00,,SKC,0.00,VWS V14.01,2013-02-04 20:30:00,
2013-02-04 12:45:00,47.8,44.4,30.11,ESE,112,2.0,8.0,88,0.00,,SKC,0.00,VWS V14.01,2013-02-04 20:45:00,
2013-02-04 13:00:00,48.2,44.2,30.10,ESE,112,2.0,7.0,86,0.00,,SKC,0.00,VWS V14.01,2013-02-04 21:00:00,
2013-02-04 13:15:00,48.0,44.0,30.10,SE,135,2.0,11.0,86,0.01,,SKC,0.01,VWS V14.01,2013-02-04 21:15:00,
2013-02-04 13:30:00,48.3,43.7,30.09,SE,135,1.0,7.0,84,0.01,,SKC,0.01,VWS V14.01,2013-02-04 21:30:00,
2013-02-04 13:45:00,48.1,43.5,30.08,SE,135,1.0,5.0,84,0.01,,SKC,0.01,VWS V14.01,2013-02-04 21:45:00,
2013-02-04 14:00:00,48.3,44.0,30.07,SSE,158,1.0,5.0,85,0.01,,SKC,0.01,VWS V14.01,2013-02-04 22:00:00,
2013-02-04 14:15:00,48.6,44.6,30.07,SSW,202,1.0,4.0,86,0.01,,SKC,0.01,VWS V14.01,2013-02-04 22:15:00,
2013-02-04 14:30:00,49.2,44.6,30.06,SSW,202,1.0,4.0,84,0.00,,SKC,0.01,VWS V14.01,2013-02-04 22:30:00,
2013-02-04 14:45:00,49.2,44.3,30.05,SSW,202,1.0,5.0,83,0.00,,SKC,0.01,VWS V14.01,2013-02-04 22:45:00,
2013-02-04 15:00:00,49.3,44.7,30.04,East,90,0.0,4.0,84,0.00,,SKC,0.01,VWS V14.01,2013-02-04 23:00:00,
2013-02-04 15:15:00,49.4,44.5,30.03,ESE,112,0.0,2.0,83,0.00,,SKC,0.01,VWS V14.01,2013-02-04 23:15:00,
2013-02-04 15:30:00,49.0,44.7,30.03,ESE,112,0.0,2.0,85,0.00,,SKC,0.01,VWS V14.01,2013-02-04 23:30:00,
2013-02-04 15:45:00,48.9,44.6,30.02,ESE,112,0.0,0.0,85,0.00,,SKC,0.01,VWS V14.01,2013-02-04 23:45:00,
2013-02-04 16:00:00,49.0,44.7,30.01,ESE,112,0.0,1.0,85,0.00,,SKC,0.01,VWS V14.01,2013-02-05 00:00:00,
2013-02-04 16:15:00,48.8,44.8,30.01,ESE,112,0.0,0.0,86,0.00,,SKC,0.01,VWS V14.01,2013-02-05 00:15:00,
2013-02-04 16:30:00,46.9,43.2,30.01,ESE,112,0.0,1.0,87,0.00,,SKC,0.01,VWS V14.01,2013-02-05 00:30:00,
2013-02-04 16:45:00,46.9,43.8,30.01,ESE,112,0.0,0.0,89,0.00,,SKC,0.01,VWS V14.01,2013-02-05 00:45:00,
2013-02-04 17:00:00,47.2,44.1,30.00,ESE,112,0.0,0.0,89,0.00,,SKC,0.01,VWS V14.01,2013-02-05 01:00:00,
2013-02-04 17:15:00,46.8,44.0,29.99,ESE,112,0.0,1.0,90,0.00,,SKC,0.01,VWS V14.01,2013-02-05 01:15:00,
2013-02-04 17:30:00,46.3,44.1,30.00,ESE,112,0.0,1.0,92,0.00,,SKC,0.01,VWS V14.01,2013-02-05 01:30:00,
2013-02-04 17:45:00,45.8,43.6,30.00,SSW,202,0.0,2.0,92,0.00,,SKC,0.01,VWS V14.01,2013-02-05 01:45:00,
2013-02-04 18:00:00,45.6,43.4,30.00,SSW,202,0.0,1.0,92,0.00,,SKC,0.01,VWS V14.01,2013-02-05 02:00:00,
2013-02-04 18:15:00,45.6,43.7,30.00,SSW,202,0.0,1.0,93,0.00,,SKC,0.01,VWS V14.01,2013-02-05 02:15:00,
2013-02-04 18:30:00,45.7,44.1,29.99,ESE,112,1.0,2.0,94,0.00,,SKC,0.01,VWS V14.01,2013-02-05 02:30:00,
2013-02-04 18:45:00,45.5,43.9,29.98,ESE,112,1.0,4.0,94,0.00,,SKC,0.01,VWS V14.01,2013-02-05 02:45:00,
2013-02-04 19:00:00,45.4,44.0,29.98,ESE,112,0.0,5.0,95,0.00,,SKC,0.01,VWS V14.01,2013-02-05 03:00:00,
2013-02-04 19:15:00,45.4,44.0,29.97,ESE,112,1.0,5.0,95,0.00,,SKC,0.01,VWS V14.01,2013-02-05 03:15:00,
2013-02-04 19:30:00,45.5,44.2,29.96,ESE,112,1.0,8.0,95,0.00,,SKC,0.01,VWS V14.01,2013-02-05 03:30:00,
2013-02-04 19:45:00,45.6,44.0,29.94,ESE,112,1.0,4.0,94,0.00,,SKC,0.01,VWS V14.01,2013-02-05 03:45:00,
2013-02-04 20:00:00,45.7,44.1,29.92,East,90,2.0,5.0,94,0.00,,SKC,0.01,VWS V14.01,2013-02-05 04:00:00,
2013-02-04 20:15:00,45.7,44.1,29.91,ENE,68,1.0,5.0,94,0.00,,SKC,0.01,VWS V14.01,2013-02-05 04:15:00,
2013-02-04 20:30:00,45.8,43.9,29.90,ENE,68,0.0,4.0,93,0.00,,SKC,0.01,VWS V14.01,2013-02-05 04:30:00,
2013-02-04 20:45:00,45.6,43.7,29.89,ENE,68,0.0,1.0,93,0.00,,SKC,0.01,VWS V14.01,2013-02-05 04:45:00,
2013-02-04 21:00:00,45.4,43.5,29.89,ENE,68,0.0,1.0,93,0.00,,SKC,0.01,VWS V14.01,2013-02-05 05:00:00,
2013-02-04 21:15:00,45.1,43.2,29.89,ENE,68,0.0,1.0,93,0.00,,SKC,0.01,VWS V14.01,2013-02-05 05:15:00,
2013-02-04 21:30:00,44.9,43.0,29.89,ENE,68,0.0,1.0,93,0.00,,SKC,0.01,VWS V14.01,2013-02-05 05:30:00,
2013-02-04 21:45:00,45.0,43.4,29.90,West,270,3.0,8.0,94,0.00,,SKC,0.01,VWS V14.01,2013-02-05 05:45:00,
2013-02-04 22:00:00,45.0,43.4,29.90,West,270,4.0,7.0,94,0.00,,SKC,0.01,VWS V14.01,2013-02-05 06:00:00,
2013-02-04 22:15:00,44.7,43.1,29.89,West,270,2.0,5.0,94,0.00,,SKC,0.01,VWS V14.01,2013-02-05 06:15:00,
2013-02-04 22:30:00,44.7,43.1,29.89,West,270,0.0,1.0,94,0.00,,SKC,0.01,VWS V14.01,2013-02-05 06:30:00,
2013-02-04 22:45:00,44.5,43.2,29.88,West,270,0.0,2.0,95,0.00,,SKC,0.01,VWS V14.01,2013-02-05 06:45:00,
2013-02-04 23:00:00,44.3,43.0,29.89,West,270,0.0,1.0,95,0.00,,SKC,0.01,VWS V14.01,2013-02-05 07:00:00,
2013-02-04 23:15:00,44.0,42.7,29.88,West,270,0.0,1.0,95,0.00,,SKC,0.01,VWS V14.01,2013-02-05 07:15:00,
2013-02-04 23:30:00,43.8,42.5,29.89,West,270,0.0,1.0,95,0.00,,SKC,0.01,VWS V14.01,2013-02-05 07:30:00,
2013-02-04 23:45:00,43.6,42.5,29.88,West,270,1.0,2.0,96,0.00,,SKC,0.01,VWS V14.01,2013-02-05 07:45:00,